,,,PA_Meas_PMT16A,,PR_Meas_QMR101_102,,RH_Meas_QMH101,,SR_Meas_QMS101,,TA_Meas_QMH101,,GenWind,,GenWind,
date,time,status,PA,status,PR,status,RH,status,SR,status,TA,status,DirAvg,status,SpdAvg,
2009-03-08, 00:00:04,VALID,1000.43,VALID,0,VALID,90.0753,VALID,0,VALID,24.796,VALID,50,VALID,0.328906,
2009-03-08, 00:01:04,VALID,1000.43,VALID,0,VALID,90.1287,VALID,0,VALID,24.796,VALID,14,VALID,0.452344,
2009-03-08, 00:02:04,VALID,1000.4,VALID,0,VALID,90.144,VALID,0,VALID,24.796,VALID,14,VALID,0.375781,
2009-03-08, 00:03:04,VALID,1000.4,VALID,0,VALID,90.2508,VALID,0,VALID,24.7765,VALID,14,VALID,0.383594,
2009-03-08, 00:04:04,VALID,1000.38,VALID,0,VALID,90.144,VALID,0,VALID,24.7765,VALID,14,VALID,0.433594,
2009-03-08, 00:05:04,VALID,1000.35,VALID,0,VALID,90.1211,VALID,0,VALID,24.757,VALID,14,VALID,0.275,
2009-03-08, 00:06:04,VALID,1000.34,VALID,0,VALID,90.0982,VALID,0,VALID,24.7551,VALID,14,VALID,0.251563,
2009-03-08, 00:07:04,VALID,1000.32,VALID,0,VALID,90.1668,VALID,0,VALID,24.7356,VALID,14,VALID,0.286328,
2009-03-08, 00:08:04,VALID,1000.32,VALID,0,VALID,90.2355,VALID,0,VALID,24.6965,VALID,14,VALID,0.283984,
2009-03-08, 00:09:04,VALID,1000.3,VALID,0,VALID,90.3271,VALID,0,VALID,24.6965,VALID,14,VALID,0.270703,
2009-03-08, 00:10:04,VALID,1000.26,VALID,0,VALID,90.4568,VALID,0,VALID,24.677,VALID,14,VALID,0.272266,
2009-03-08, 00:11:04,VALID,1000.23,VALID,0,VALID,90.5026,VALID,0,VALID,24.677,VALID,14,VALID,0.159766,
2009-03-08, 00:12:04,VALID,1000.19,VALID,0,VALID,90.617,VALID,0,VALID,24.6575,VALID,14,VALID,0,
2009-03-08, 00:13:04,VALID,1000.15,VALID,0,VALID,90.7543,VALID,0,VALID,24.638,VALID,14,VALID,0,
2009-03-08, 00:14:04,VALID,1000.17,VALID,0,VALID,90.884,VALID,0,VALID,24.6398,VALID,14,VALID,0,
2009-03-08, 00:15:04,VALID,1000.11,VALID,0,VALID,90.9756,VALID,0,VALID,24.6184,VALID,14,VALID,0,
2009-03-08, 00:16:04,VALID,1000.07,VALID,0,VALID,90.9374,VALID,0,VALID,24.6184,VALID,14,VALID,0,
2009-03-08, 00:17:04,VALID,1000.07,VALID,0,VALID,90.9222,VALID,0,VALID,24.5989,VALID,14,VALID,0,
2009-03-08, 00:18:04,VALID,1000.09,VALID,0,VALID,90.9527,VALID,0,VALID,24.6184,VALID,14,VALID,0.116016,
2009-03-08, 00:19:04,VALID,1000.06,VALID,0,VALID,90.823,VALID,0,VALID,24.6184,VALID,14,VALID,0.644922,
2009-03-08, 00:20:04,VALID,1000.08,VALID,0,VALID,90.5712,VALID,0,VALID,24.6166,VALID,14,VALID,0.807031,
2009-03-08, 00:21:04,VALID,1000.06,VALID,0,VALID,90.4263,VALID,0,VALID,24.638,VALID,19,VALID,0.721484,
2009-03-08, 00:22:04,VALID,1000.06,VALID,0,VALID,90.4339,VALID,0.112286,VALID,24.6361,VALID,22,VALID,0.699219,
2009-03-08, 00:23:04,VALID,1000.06,VALID,0,VALID,90.4873,VALID,0,VALID,24.638,VALID,22,VALID,0.7125,
2009-03-08, 00:24:04,VALID,1000.08,VALID,0,VALID,90.5865,VALID,0,VALID,24.638,VALID,27,VALID,0.9,
2009-03-08, 00:25:04,VALID,1000.03,VALID,0,VALID,91.09,VALID,0,VALID,24.638,VALID,49,VALID,0.774219,
2009-03-08, 00:26:04,VALID,1000.04,VALID,0,VALID,91.4181,VALID,0,VALID,24.6575,VALID,50,VALID,0.758203,
2009-03-08, 00:27:04,VALID,1000.05,VALID,0,VALID,91.6165,VALID,0.112286,VALID,24.6575,VALID,54,VALID,0.678906,
2009-03-08, 00:28:04,VALID,1000.02,VALID,0,VALID,91.6012,VALID,0,VALID,24.6807,VALID,60,VALID,0.908594,
2009-03-08, 00:29:04,VALID,1000.03,VALID,0,VALID,91.1968,VALID,0,VALID,24.6398,VALID,68,VALID,0.997266,
2009-03-08, 00:30:04,VALID,1000.02,VALID,0,VALID,91.296,VALID,0,VALID,24.6398,VALID,66,VALID,0.846484,
2009-03-08, 00:31:04,VALID,1000.02,VALID,0,VALID,91.1053,VALID,0,VALID,24.6203,VALID,66,VALID,0.671875,
2009-03-08, 00:32:04,VALID,1000.02,VALID,0,VALID,90.8154,VALID,0,VALID,24.6008,VALID,67,VALID,0.660937,
2009-03-08, 00:33:04,VALID,999.993,VALID,0,VALID,90.6475,VALID,0,VALID,24.5618,VALID,66,VALID,0.487891,
2009-03-08, 00:34:04,VALID,999.982,VALID,0,VALID,90.35,VALID,0,VALID,24.5813,VALID,61,VALID,0.523828,
2009-03-08, 00:35:04,VALID,999.993,VALID,0,VALID,90.3194,VALID,0,VALID,24.5618,VALID,61,VALID,0.267969,
2009-03-08, 00:36:04,VALID,999.957,VALID,0,VALID,90.144,VALID,0,VALID,24.5618,VALID,61,VALID,0.303125,
2009-03-08, 00:37:04,VALID,999.948,VALID,0,VALID,90.0295,VALID,0,VALID,24.5422,VALID,61,VALID,0.240234,
2009-03-08, 00:38:04,VALID,999.93,VALID,0,VALID,89.9609,VALID,0,VALID,24.5013,VALID,61,VALID,0.172656,
2009-03-08, 00:39:04,VALID,999.909,VALID,0,VALID,89.6786,VALID,0,VALID,24.5227,VALID,61,VALID,0.278125,
2009-03-08, 00:40:04,VALID,999.899,VALID,0,VALID,89.3886,VALID,0,VALID,24.5227,VALID,61,VALID,0.234375,
2009-03-08, 00:41:04,VALID,999.867,VALID,0,VALID,89.4344,VALID,0,VALID,24.5227,VALID,61,VALID,0.0046875,
2009-03-08, 00:42:04,VALID,999.856,VALID,0,VALID,89.3047,VALID,0,VALID,24.5013,VALID,61,VALID,0,
2009-03-08, 00:43:04,VALID,999.849,VALID,0,VALID,89.3047,VALID,0,VALID,24.5227,VALID,61,VALID,0,
2009-03-08, 00:44:04,VALID,999.814,VALID,0,VALID,89.4039,VALID,0,VALID,24.5227,VALID,61,VALID,0.324219,
2009-03-08, 00:45:04,VALID,999.842,VALID,0,VALID,89.8846,VALID,0,VALID,24.5813,VALID,43,VALID,0.38125,
2009-03-08, 00:46:04,VALID,999.866,VALID,0,VALID,89.8769,VALID,0,VALID,24.6203,VALID,12,VALID,0.528906,
2009-03-08, 00:47:04,VALID,999.855,VALID,0,VALID,89.9837,VALID,0,VALID,24.6398,VALID,3,VALID,0.373047,
2009-03-08, 00:48:04,VALID,999.818,VALID,0,VALID,89.8235,VALID,0,VALID,24.6594,VALID,3,VALID,0.387891,
2009-03-08, 00:49:04,VALID,999.867,VALID,0,VALID,89.8006,VALID,0,VALID,24.6184,VALID,3,VALID,0.227734,
2009-03-08, 00:50:04,VALID,999.84,VALID,0,VALID,89.7472,VALID,0,VALID,24.6789,VALID,3,VALID,0.253125,
2009-03-08, 00:51:04,VALID,999.819,VALID,0,VALID,89.8388,VALID,0,VALID,24.6789,VALID,3,VALID,0.440625,
2009-03-08, 00:52:04,VALID,999.812,VALID,0,VALID,89.9685,VALID,0,VALID,24.677,VALID,3,VALID,0.458984,
2009-03-08, 00:53:04,VALID,999.793,VALID,0,VALID,90.2813,VALID,0,VALID,24.7179,VALID,3,VALID,0.421484,
2009-03-08, 00:54:04,VALID,999.789,VALID,0,VALID,90.9374,VALID,0,VALID,24.7765,VALID,359,VALID,0.658984,
2009-03-08, 00:55:04,VALID,999.808,VALID,0,VALID,90.968,VALID,0,VALID,24.757,VALID,359,VALID,0.580078,
2009-03-08, 00:56:04,VALID,999.79,VALID,0,VALID,91.1129,VALID,0,VALID,24.757,VALID,359,VALID,0.450391,
2009-03-08, 00:57:04,VALID,999.764,VALID,0,VALID,91.2579,VALID,0,VALID,24.7374,VALID,359,VALID,0.367188,
2009-03-08, 00:58:04,VALID,999.753,VALID,0,VALID,91.4105,VALID,0,VALID,24.716,VALID,359,VALID,0.385547,
2009-03-08, 00:59:04,VALID,999.761,VALID,0,VALID,91.5478,VALID,0,VALID,24.7374,VALID,359,VALID,0.474609,
2009-03-08, 01:00:04,VALID,999.766,VALID,0,VALID,91.3342,VALID,0,VALID,24.6984,VALID,359,VALID,0.451172,
2009-03-08, 01:01:04,VALID,999.769,VALID,0,VALID,91.4486,VALID,0,VALID,24.6594,VALID,359,VALID,0.230078,
2009-03-08, 01:02:04,VALID,999.788,VALID,0,VALID,91.5249,VALID,0,VALID,24.6398,VALID,359,VALID,0.211719,
2009-03-08, 01:03:04,VALID,999.744,VALID,0,VALID,91.7614,VALID,0,VALID,24.6398,VALID,359,VALID,0.0371094,
2009-03-08, 01:04:04,VALID,999.783,VALID,0,VALID,91.8988,VALID,0,VALID,24.6398,VALID,359,VALID,0,
2009-03-08, 01:05:04,VALID,999.724,VALID,0,VALID,91.9217,VALID,0,VALID,24.6203,VALID,359,VALID,0,
2009-03-08, 01:06:04,VALID,999.718,VALID,0,VALID,91.9598,VALID,0,VALID,24.6203,VALID,359,VALID,0,
2009-03-08, 01:07:04,VALID,999.717,VALID,0,VALID,91.6241,VALID,0,VALID,24.5813,VALID,359,VALID,0.301172,
2009-03-08, 01:08:04,VALID,999.691,VALID,0,VALID,91.8072,VALID,0,VALID,24.5618,VALID,359,VALID,0.375781,
2009-03-08, 01:09:04,VALID,999.652,VALID,0,VALID,91.8454,VALID,0,VALID,24.5813,VALID,359,VALID,0.501562,
2009-03-08, 01:10:04,VALID,999.65,VALID,0,VALID,91.7385,VALID,0,VALID,24.5618,VALID,359,VALID,0.378516,
2009-03-08, 01:11:04,VALID,999.633,VALID,0,VALID,91.7309,VALID,0,VALID,24.5618,VALID,359,VALID,0.467187,
2009-03-08, 01:12:04,VALID,999.595,VALID,0,VALID,91.8225,VALID,0,VALID,24.6008,VALID,88,VALID,0.56875,
2009-03-08, 01:13:04,VALID,999.583,VALID,0,VALID,91.6851,VALID,0,VALID,24.6008,VALID,94,VALID,0.550781,
2009-03-08, 01:14:04,VALID,999.604,VALID,0,VALID,91.5478,VALID,0,VALID,24.6008,VALID,94,VALID,0.469922,
2009-03-08, 01:15:04,VALID,999.579,VALID,0,VALID,91.4486,VALID,0,VALID,24.5813,VALID,96,VALID,0.520703,
2009-03-08, 01:16:04,VALID,999.567,VALID,0,VALID,91.2426,VALID,0,VALID,24.5404,VALID,96,VALID,0.509375,
2009-03-08, 01:17:04,VALID,999.565,VALID,0,VALID,91.1358,VALID,0,VALID,24.5422,VALID,96,VALID,0.490625,
2009-03-08, 01:18:04,VALID,999.562,VALID,0,VALID,91.1282,VALID,0,VALID,24.5209,VALID,96,VALID,0.444141,
2009-03-08, 01:19:04,VALID,999.558,VALID,0,VALID,91.0214,VALID,0,VALID,24.5013,VALID,96,VALID,0.323828,
2009-03-08, 01:20:04,VALID,999.56,VALID,0,VALID,91.0137,VALID,0,VALID,24.5422,VALID,96,VALID,0.264844,
2009-03-08, 01:21:04,VALID,999.544,VALID,0,VALID,90.8383,VALID,0,VALID,24.5422,VALID,96,VALID,0.348047,
2009-03-08, 01:22:04,VALID,999.524,VALID,0,VALID,90.6094,VALID,0,VALID,24.5013,VALID,111,VALID,0.601172,
2009-03-08, 01:23:04,VALID,999.493,VALID,0,VALID,90.5407,VALID,0,VALID,24.5032,VALID,112,VALID,0.494141,
2009-03-08, 01:24:04,VALID,999.482,VALID,0,VALID,90.5331,VALID,0,VALID,24.5032,VALID,112,VALID,0.286719,
2009-03-08, 01:25:04,VALID,999.477,VALID,0,VALID,90.5788,VALID,0,VALID,24.4837,VALID,112,VALID,0.265234,
2009-03-08, 01:26:04,VALID,999.464,VALID,0,VALID,90.5941,VALID,0,VALID,24.4837,VALID,112,VALID,0.00195313,
2009-03-08, 01:27:04,VALID,999.451,VALID,0,VALID,90.6628,VALID,0,VALID,24.4623,VALID,112,VALID,0.0574219,
2009-03-08, 01:28:04,VALID,999.431,VALID,0,VALID,90.7391,VALID,0,VALID,24.4642,VALID,112,VALID,0.0605469,
2009-03-08, 01:29:04,VALID,999.431,VALID,0,VALID,90.884,VALID,0,VALID,24.4446,VALID,112,VALID,0,
2009-03-08, 01:30:04,VALID,999.426,VALID,0,VALID,90.9909,VALID,0,VALID,24.4251,VALID,112,VALID,0.0664063,
2009-03-08, 01:31:04,VALID,999.387,VALID,0,VALID,91.1358,VALID,0,VALID,24.4642,VALID,112,VALID,0.305469,
2009-03-08, 01:32:04,VALID,999.41,VALID,0,VALID,91.1663,VALID,0,VALID,24.4233,VALID,112,VALID,0.553516,
2009-03-08, 01:33:04,VALID,999.42,VALID,0,VALID,91.1129,VALID,0,VALID,24.4251,VALID,95,VALID,0.739453,
2009-03-08, 01:34:04,VALID,999.41,VALID,0,VALID,91.2655,VALID,0,VALID,24.4251,VALID,93,VALID,0.967188,
2009-03-08, 01:35:04,VALID,999.405,VALID,0,VALID,91.3418,VALID,0,VALID,24.3861,VALID,93,VALID,0.683594,
2009-03-08, 01:36:04,VALID,999.399,VALID,0,VALID,91.4028,VALID,0,VALID,24.3666,VALID,93,VALID,0.336719,
2009-03-08, 01:37:04,VALID,999.4,VALID,0,VALID,91.4715,VALID,0,VALID,24.3666,VALID,93,VALID,0.121484,
2009-03-08, 01:38:04,VALID,999.359,VALID,0,VALID,91.586,VALID,0,VALID,24.347,VALID,108,VALID,0.588672,
2009-03-08, 01:39:04,VALID,999.356,VALID,0,VALID,91.5707,VALID,0,VALID,24.3062,VALID,105,VALID,0.380859,
2009-03-08, 01:40:04,VALID,999.331,VALID,0,VALID,91.647,VALID,0,VALID,24.2866,VALID,105,VALID,0.194141,
2009-03-08, 01:41:04,VALID,999.307,VALID,0,VALID,91.7385,VALID,0,VALID,24.2885,VALID,105,VALID,0.293359,
2009-03-08, 01:42:04,VALID,999.301,VALID,0,VALID,91.8148,VALID,0,VALID,24.269,VALID,105,VALID,0.155859,
2009-03-08, 01:43:04,VALID,999.288,VALID,0,VALID,91.8759,VALID,0,VALID,24.2495,VALID,105,VALID,0.160156,
2009-03-08, 01:44:04,VALID,999.264,VALID,0,VALID,92.0132,VALID,0,VALID,24.2495,VALID,105,VALID,0.374609,
2009-03-08, 01:45:04,VALID,999.284,VALID,0,VALID,92.0971,VALID,0,VALID,24.2495,VALID,105,VALID,0.458203,
2009-03-08, 01:46:04,VALID,999.268,VALID,0,VALID,92.2192,VALID,0,VALID,24.269,VALID,120,VALID,0.467578,
2009-03-08, 01:47:04,VALID,999.254,VALID,0,VALID,92.2574,VALID,0,VALID,24.2885,VALID,121,VALID,0.589844,
2009-03-08, 01:48:04,VALID,999.249,VALID,0,VALID,92.3794,VALID,0,VALID,24.308,VALID,121,VALID,0.675391,
2009-03-08, 01:49:04,VALID,999.207,VALID,0,VALID,92.3642,VALID,0,VALID,24.3275,VALID,121,VALID,0.500781,
2009-03-08, 01:50:04,VALID,999.2,VALID,0,VALID,92.4176,VALID,0,VALID,24.308,VALID,121,VALID,0.4,
2009-03-08, 01:51:04,VALID,999.164,VALID,0,VALID,92.3947,VALID,0,VALID,24.3275,VALID,130,VALID,0.221875,
2009-03-08, 01:52:04,VALID,999.137,VALID,0,VALID,92.4252,VALID,0,VALID,24.3275,VALID,131,VALID,0.271094,
2009-03-08, 01:53:04,VALID,999.108,VALID,0,VALID,92.5244,VALID,0,VALID,24.3275,VALID,155,VALID,0.485156,
2009-03-08, 01:54:04,VALID,999.091,VALID,0,VALID,92.5778,VALID,0,VALID,24.347,VALID,156,VALID,0.484375,
2009-03-08, 01:55:04,VALID,999.04,VALID,0,VALID,92.6388,VALID,0,VALID,24.3275,VALID,152,VALID,0.600781,
2009-03-08, 01:56:04,VALID,999.042,VALID,0,VALID,92.6923,VALID,0,VALID,24.347,VALID,150,VALID,0.590234,
2009-03-08, 01:57:04,VALID,999.012,VALID,0,VALID,92.7151,VALID,0,VALID,24.3666,VALID,150,VALID,0.45625,
2009-03-08, 01:58:04,VALID,999.016,VALID,0,VALID,92.7151,VALID,0,VALID,24.3666,VALID,150,VALID,0.369922,
2009-03-08, 01:59:04,VALID,999.033,VALID,0,VALID,92.6541,VALID,0,VALID,24.3666,VALID,150,VALID,0.119531,
2009-03-08, 02:00:04,VALID,999.066,VALID,0,VALID,92.6236,VALID,0,VALID,24.3647,VALID,150,VALID,0,
2009-03-08, 02:01:04,VALID,999.051,VALID,0,VALID,92.6617,VALID,0,VALID,24.3666,VALID,150,VALID,0,
2009-03-08, 02:02:04,VALID,999.022,VALID,0,VALID,92.6312,VALID,0,VALID,24.347,VALID,150,VALID,0.151172,
2009-03-08, 02:03:04,VALID,999.03,VALID,0,VALID,92.6388,VALID,0,VALID,24.3666,VALID,150,VALID,0.147266,
2009-03-08, 02:04:04,VALID,999.004,VALID,0,VALID,92.471,VALID,0,VALID,24.347,VALID,150,VALID,0.307422,
2009-03-08, 02:05:04,VALID,998.988,VALID,0,VALID,92.4786,VALID,0,VALID,24.3275,VALID,149,VALID,0.350781,
2009-03-08, 02:06:04,VALID,998.963,VALID,0,VALID,92.5091,VALID,0,VALID,24.308,VALID,135,VALID,0.398438,
2009-03-08, 02:07:04,VALID,998.93,VALID,0,VALID,92.616,VALID,0,VALID,24.2885,VALID,135,VALID,0.361328,
2009-03-08, 02:08:04,VALID,998.934,VALID,0,VALID,92.5778,VALID,0,VALID,24.269,VALID,135,VALID,0.413672,
2009-03-08, 02:09:04,VALID,998.918,VALID,0,VALID,92.5473,VALID,0,VALID,24.269,VALID,135,VALID,0.384766,
2009-03-08, 02:10:04,VALID,998.882,VALID,0,VALID,92.6617,VALID,0,VALID,24.2281,VALID,135,VALID,0.352734,
2009-03-08, 02:11:04,VALID,998.891,VALID,0,VALID,92.3794,VALID,0,VALID,24.2086,VALID,135,VALID,0.222266,
2009-03-08, 02:12:04,VALID,998.906,VALID,0,VALID,92.3871,VALID,0,VALID,24.1714,VALID,134,VALID,0.446484,
2009-03-08, 02:13:04,VALID,998.878,VALID,0,VALID,92.6388,VALID,0,VALID,24.1909,VALID,95,VALID,0.360547,
2009-03-08, 02:14:04,VALID,998.89,VALID,0,VALID,92.7533,VALID,0,VALID,24.1714,VALID,95,VALID,0.219531,
2009-03-08, 02:15:04,VALID,998.863,VALID,0,VALID,92.6236,VALID,0,VALID,24.1519,VALID,95,VALID,0.237109,
2009-03-08, 02:16:04,VALID,998.854,VALID,0,VALID,92.8143,VALID,0,VALID,24.1324,VALID,95,VALID,0.248047,
2009-03-08, 02:17:04,VALID,998.867,VALID,0,VALID,92.9364,VALID,0,VALID,24.1519,VALID,95,VALID,0.112109,
2009-03-08, 02:18:04,VALID,998.835,VALID,0,VALID,92.9517,VALID,0,VALID,24.1324,VALID,95,VALID,0.0929687,
2009-03-08, 02:19:04,VALID,998.863,VALID,0,VALID,93.0203,VALID,0,VALID,24.1519,VALID,95,VALID,0.0648438,
2009-03-08, 02:20:04,VALID,998.877,VALID,0,VALID,93.089,VALID,0,VALID,24.15,VALID,95,VALID,0.142578,
2009-03-08, 02:21:04,VALID,998.883,VALID,0,VALID,93.028,VALID,0,VALID,24.1714,VALID,95,VALID,0.223828,
2009-03-08, 02:22:04,VALID,998.871,VALID,0,VALID,92.9288,VALID,0,VALID,24.1714,VALID,95,VALID,0.354297,
2009-03-08, 02:23:04,VALID,998.868,VALID,0,VALID,92.9364,VALID,0,VALID,24.1714,VALID,95,VALID,0.244531,
2009-03-08, 02:24:04,VALID,998.88,VALID,0,VALID,92.944,VALID,0,VALID,24.1519,VALID,95,VALID,0.189063,
2009-03-08, 02:25:04,VALID,998.876,VALID,0,VALID,92.9898,VALID,0,VALID,24.1519,VALID,95,VALID,0.125391,
2009-03-08, 02:26:04,VALID,998.87,VALID,0,VALID,92.9898,VALID,0,VALID,24.1324,VALID,95,VALID,0,
2009-03-08, 02:27:04,VALID,998.886,VALID,0,VALID,93.0127,VALID,0,VALID,24.1305,VALID,95,VALID,0,
2009-03-08, 02:28:04,VALID,998.867,VALID,0,VALID,93.0585,VALID,0,VALID,24.1305,VALID,95,VALID,0,
2009-03-08, 02:29:04,VALID,998.879,VALID,0,VALID,93.0356,VALID,0,VALID,24.1324,VALID,95,VALID,0,
2009-03-08, 02:30:04,VALID,998.866,VALID,0,VALID,93.0585,VALID,0,VALID,24.111,VALID,95,VALID,0.08125,
2009-03-08, 02:31:04,VALID,998.886,VALID,0,VALID,93.0966,VALID,0,VALID,24.1128,VALID,95,VALID,0,
2009-03-08, 02:32:04,VALID,998.869,VALID,0,VALID,93.0661,VALID,0,VALID,24.1128,VALID,95,VALID,0,
2009-03-08, 02:33:04,VALID,998.87,VALID,0,VALID,93.15,VALID,0,VALID,24.1128,VALID,95,VALID,0,
2009-03-08, 02:34:04,VALID,998.88,VALID,0,VALID,93.1882,VALID,0,VALID,24.1128,VALID,95,VALID,0,
2009-03-08, 02:35:04,VALID,998.876,VALID,0,VALID,93.0661,VALID,0,VALID,24.0933,VALID,95,VALID,0.257031,
2009-03-08, 02:36:04,VALID,998.88,VALID,0,VALID,93.1271,VALID,0,VALID,24.0738,VALID,95,VALID,0.301953,
2009-03-08, 02:37:04,VALID,998.861,VALID,0,VALID,93.2111,VALID,0,VALID,24.0738,VALID,10,VALID,0.471094,
2009-03-08, 02:38:04,VALID,998.885,VALID,0,VALID,93.2797,VALID,0,VALID,24.0543,VALID,10,VALID,0.553125,
2009-03-08, 02:39:04,VALID,998.91,VALID,0,VALID,93.3179,VALID,0,VALID,24.0329,VALID,10,VALID,0.525,
2009-03-08, 02:40:04,VALID,998.898,VALID,0,VALID,93.3866,VALID,0,VALID,24.0348,VALID,10,VALID,0.529297,
2009-03-08, 02:41:04,VALID,998.858,VALID,0,VALID,93.4476,VALID,0,VALID,24.0543,VALID,10,VALID,0.503906,
2009-03-08, 02:42:04,VALID,998.879,VALID,0,VALID,93.4476,VALID,0,VALID,24.0348,VALID,10,VALID,0.432813,
2009-03-08, 02:43:04,VALID,998.892,VALID,0,VALID,93.4781,VALID,0,VALID,24.0348,VALID,10,VALID,0.396094,
2009-03-08, 02:44:04,VALID,998.897,VALID,0,VALID,93.4934,VALID,0,VALID,24.0348,VALID,10,VALID,0.410547,
2009-03-08, 02:45:04,VALID,998.875,VALID,0,VALID,93.5163,VALID,0,VALID,24.0134,VALID,10,VALID,0.439844,
2009-03-08, 02:46:04,VALID,998.847,VALID,0,VALID,93.5544,VALID,0,VALID,24.0348,VALID,10,VALID,0.278906,
2009-03-08, 02:47:04,VALID,998.867,VALID,0,VALID,93.5544,VALID,0,VALID,24.0543,VALID,10,VALID,0.078125,
2009-03-08, 02:48:04,VALID,998.824,VALID,0,VALID,93.562,VALID,0,VALID,24.0348,VALID,10,VALID,0,
2009-03-08, 02:49:04,VALID,998.833,VALID,0,VALID,93.5773,VALID,0,VALID,24.0348,VALID,10,VALID,0.0363281,
2009-03-08, 02:50:04,VALID,998.816,VALID,0,VALID,93.5086,VALID,0,VALID,24.0134,VALID,10,VALID,0,
2009-03-08, 02:51:04,VALID,998.819,VALID,0,VALID,93.5315,VALID,0,VALID,24.0153,VALID,10,VALID,0,
2009-03-08, 02:52:04,VALID,998.791,VALID,0,VALID,93.5849,VALID,0,VALID,23.9957,VALID,10,VALID,0,
2009-03-08, 02:53:04,VALID,998.773,VALID,0,VALID,93.6078,VALID,0,VALID,23.9957,VALID,10,VALID,0,
2009-03-08, 02:54:04,VALID,998.81,VALID,0,VALID,93.6231,VALID,0,VALID,23.9957,VALID,10,VALID,0,
2009-03-08, 02:55:04,VALID,998.775,VALID,0,VALID,93.5849,VALID,0,VALID,23.9762,VALID,10,VALID,0.0765625,
2009-03-08, 02:56:04,VALID,998.803,VALID,0,VALID,93.6383,VALID,0,VALID,23.9567,VALID,10,VALID,0.263672,
2009-03-08, 02:57:04,VALID,998.787,VALID,0,VALID,93.6612,VALID,0,VALID,23.9372,VALID,10,VALID,0.394141,
2009-03-08, 02:58:04,VALID,998.807,VALID,0,VALID,93.7451,VALID,0,VALID,23.9177,VALID,10,VALID,0.552734,
2009-03-08, 02:59:04,VALID,998.816,VALID,0,VALID,93.7985,VALID,0,VALID,23.9585,VALID,10,VALID,0.420312,
2009-03-08, 03:00:04,VALID,998.83,VALID,0,VALID,93.7451,VALID,0,VALID,23.9177,VALID,10,VALID,0.2875,
2009-03-08, 03:01:04,VALID,998.82,VALID,0,VALID,93.7985,VALID,0,VALID,23.9177,VALID,10,VALID,0.1375,
2009-03-08, 03:02:04,VALID,998.812,VALID,0,VALID,93.8214,VALID,0,VALID,23.8982,VALID,10,VALID,0,
2009-03-08, 03:03:04,VALID,998.805,VALID,0,VALID,93.8748,VALID,0,VALID,23.9177,VALID,10,VALID,0,
2009-03-08, 03:04:04,VALID,998.783,VALID,0,VALID,93.913,VALID,0,VALID,23.9177,VALID,10,VALID,0.192188,
2009-03-08, 03:05:04,VALID,998.759,VALID,0,VALID,93.9588,VALID,0,VALID,23.9177,VALID,10,VALID,0.239844,
2009-03-08, 03:06:04,VALID,998.781,VALID,0,VALID,93.9817,VALID,0,VALID,23.9372,VALID,133,VALID,0.339453,
2009-03-08, 03:07:04,VALID,998.729,VALID,0,VALID,93.8977,VALID,0,VALID,23.9372,VALID,133,VALID,0.338672,
2009-03-08, 03:08:04,VALID,998.741,VALID,0,VALID,93.8977,VALID,0,VALID,23.9585,VALID,133,VALID,0.176953,
2009-03-08, 03:09:04,VALID,998.737,VALID,0,VALID,93.8672,VALID,0,VALID,23.9372,VALID,133,VALID,0.114453,
2009-03-08, 03:10:04,VALID,998.733,VALID,0,VALID,93.852,VALID,0,VALID,23.9567,VALID,133,VALID,0,
2009-03-08, 03:11:04,VALID,998.745,VALID,0,VALID,93.852,VALID,0,VALID,23.9372,VALID,133,VALID,0,
2009-03-08, 03:12:04,VALID,998.74,VALID,0,VALID,93.9054,VALID,0,VALID,23.9567,VALID,133,VALID,0.130078,
2009-03-08, 03:13:04,VALID,998.762,VALID,0,VALID,93.913,VALID,0,VALID,23.9762,VALID,133,VALID,0.470313,
2009-03-08, 03:14:04,VALID,998.765,VALID,0,VALID,93.9283,VALID,0,VALID,23.9762,VALID,133,VALID,0.492188,
2009-03-08, 03:15:04,VALID,998.789,VALID,0,VALID,93.8825,VALID,0,VALID,23.9762,VALID,133,VALID,0.360156,
2009-03-08, 03:16:04,VALID,998.828,VALID,0,VALID,93.8825,VALID,0,VALID,23.9762,VALID,133,VALID,0.4875,
2009-03-08, 03:17:04,VALID,998.839,VALID,0,VALID,93.8901,VALID,0,VALID,23.9762,VALID,133,VALID,0.217187,
2009-03-08, 03:18:04,VALID,998.847,VALID,0,VALID,93.8901,VALID,0,VALID,23.9957,VALID,133,VALID,0.213672,
2009-03-08, 03:19:05,VALID,998.859,VALID,0,VALID,93.8748,VALID,0,VALID,23.9762,VALID,133,VALID,0.288281,
2009-03-08, 03:20:05,VALID,998.855,VALID,0,VALID,93.8672,VALID,0,VALID,23.9957,VALID,133,VALID,0.328516,
2009-03-08, 03:21:05,VALID,998.853,VALID,0,VALID,93.9359,VALID,0,VALID,23.9957,VALID,275,VALID,0.546484,
2009-03-08, 03:22:05,VALID,998.839,VALID,0,VALID,93.9664,VALID,0,VALID,24.0153,VALID,275,VALID,0.640625,
2009-03-08, 03:23:05,VALID,998.842,VALID,0,VALID,93.9664,VALID,0,VALID,24.0153,VALID,276,VALID,0.7125,
2009-03-08, 03:24:05,VALID,998.825,VALID,0,VALID,93.9511,VALID,0,VALID,24.0348,VALID,279,VALID,0.707031,
2009-03-08, 03:25:05,VALID,998.796,VALID,0,VALID,93.9435,VALID,0,VALID,24.0153,VALID,280,VALID,0.360938,
2009-03-08, 03:26:05,VALID,998.812,VALID,0,VALID,93.9359,VALID,0,VALID,24.0153,VALID,280,VALID,0.297656,
2009-03-08, 03:27:05,VALID,998.79,VALID,0,VALID,93.913,VALID,0,VALID,24.0366,VALID,280,VALID,0.123047,
2009-03-08, 03:28:05,VALID,998.792,VALID,0,VALID,93.9283,VALID,0,VALID,24.0153,VALID,280,VALID,0.157813,
2009-03-08, 03:29:05,VALID,998.787,VALID,0,VALID,93.9817,VALID,0,VALID,23.9939,VALID,280,VALID,0.220313,
2009-03-08, 03:30:05,VALID,998.791,VALID,0,VALID,93.9893,VALID,0,VALID,24.0153,VALID,280,VALID,0.354297,
2009-03-08, 03:31:05,VALID,998.787,VALID,0,VALID,93.9969,VALID,0,VALID,24.0348,VALID,280,VALID,0.292578,
2009-03-08, 03:32:05,VALID,998.769,VALID,0,VALID,94.0274,VALID,0,VALID,24.0348,VALID,280,VALID,0.440625,
2009-03-08, 03:33:05,VALID,998.808,VALID,0,VALID,94.0351,VALID,0,VALID,24.0543,VALID,280,VALID,0.45,
2009-03-08, 03:34:05,VALID,998.769,VALID,0,VALID,94.0045,VALID,0,VALID,24.0543,VALID,299,VALID,0.566797,
2009-03-08, 03:35:05,VALID,998.756,VALID,0,VALID,93.9664,VALID,0,VALID,24.0348,VALID,302,VALID,0.425391,
2009-03-08, 03:36:05,VALID,998.721,VALID,0,VALID,93.9511,VALID,0,VALID,24.0134,VALID,302,VALID,0.477344,
2009-03-08, 03:37:05,VALID,998.69,VALID,0,VALID,93.9511,VALID,0,VALID,23.9921,VALID,302,VALID,0.455078,
2009-03-08, 03:38:05,VALID,998.668,VALID,0,VALID,93.9283,VALID,0,VALID,23.9939,VALID,348,VALID,0.594141,
2009-03-08, 03:39:05,VALID,998.605,VALID,0,VALID,93.9435,VALID,0.112286,VALID,23.9939,VALID,348,VALID,0.729297,
2009-03-08, 03:40:05,VALID,998.596,VALID,0,VALID,93.974,VALID,0,VALID,23.9744,VALID,49,VALID,0.827734,
2009-03-08, 03:41:05,VALID,998.585,VALID,0,VALID,94.1037,VALID,0,VALID,23.9744,VALID,51,VALID,0.879297,
2009-03-08, 03:42:05,VALID,998.552,VALID,0,VALID,94.1419,VALID,0.112286,VALID,23.9549,VALID,56,VALID,0.737891,
2009-03-08, 03:43:05,VALID,998.531,VALID,0,VALID,94.1343,VALID,0,VALID,23.9744,VALID,63,VALID,0.715625,
2009-03-08, 03:44:05,VALID,998.532,VALID,0,VALID,94.0885,VALID,0,VALID,23.9549,VALID,64,VALID,0.720703,
2009-03-08, 03:45:05,VALID,998.504,VALID,0,VALID,94.119,VALID,0.112286,VALID,23.9354,VALID,65,VALID,0.743359,
2009-03-08, 03:46:05,VALID,998.538,VALID,0,VALID,94.18,VALID,0,VALID,23.9549,VALID,65,VALID,0.630859,
2009-03-08, 03:47:05,VALID,998.542,VALID,0,VALID,94.1724,VALID,0.112286,VALID,23.9549,VALID,65,VALID,0.514453,